Timeline UpdatesTrip UpdatesNews PostsPvt PostsTravel TipsAdmin PostsConv PostsFollowed PostsChat RequestsBlog PostsPNR Posts

Disclaimer
Search
 
 
Thu Apr 24, 2014 19:15:25 ISTHomeTrainsΣChainsAtlasPNRForumGalleryNewsFAQTripsMembersLoginFeedback
No Recent News for this Train
Other Trains in the News **new
Latest...
.
Sat Nov 30, 2013 (12:16PM)
⇐ Return Journey: Train# 13352-Slip

18189/Tatanagar- Alappuzha Alleppey Express-Slip

Mar 11 2014 (6:26PM)
Change Departure Station:
Change Arrival Station:
Post a Train Travel TipPost a Train Travel Tip **new
Post a Comment/Question/Picture/VideoPost a Comment/Question/Picture/Video
Pantry/Catering
✓ Pantry Car Avbl
✓ Catering Avbl
.pantry car available from rourkela to allappuzha because pantry car...
Read more...
is available in dhanbad portion
Loco/Rake Reversals
MAS/Chennai Central (12); VSKP/Visakhapatnam Junction (8); SRR/Shoranur Junction (7);
RSA - Rake Sharing
Rake/Coach Composition
LOCO-SLR*-GS*-S1*-S2*-S3*-S4*-S5*-S6*-S7*-S8*-PC*-A1*-B1*-B2-ST1-ST2-ST3-ST4-ST5-GS-SLR; *= Dhanbad portion attached at ROU.
Loco
Loco In-Charge:- TATA - ROU :- TATA WAM-4/ASN WAM-4 ROU - VSKP...
Read more...
:- VSKP/R/BNDM WDM-3A VSKP - MAS :- AJJ WAM-4/BZA WAM-4 - RPM WAP-4/1 MAS - ALLP :- RPM WAP-1/WAP-4, AJJ WAM-4/WAP-4
News    PNR    Forum    Time-Table    Availability    Fare Chart    Map    Arr/Dep History    Trips    Gallery    ΣChains    X/O    Timeline    
Travel Time: 0h 35m    0 halts    Distance: 13 km    Avg Speed: 22 km/hr
Type: Mail/Express
Zone: SER/South Eastern
Departs @ 19:45 (Avg 27m late)
Platform# ???
SMTWTFS
Mararikkulam/MAKM 
Arrives @ 20:20 (Avg 9m late)
Platform# 3
SMTWTFS
Alappuzha/ALLP 

0 halts. 2 intermediate Stations between Mararikkulam and Alappuzha

Show ALL intermediate Stations  Show Old Time-Table

#CodeStation NameX/OArrivesAvgDepartsAvgHaltPFDay#KmSpeedElevZoneAddress
1TATATatanagar Junction (5)  -15:45+011-2349.865164mSER91-657-2423026, Jharkhand
2SINISini JunctionX  16:10+916:11+101m--1-2322.865182mSERNational Highway 33, Jharkhand
3RKSNRajkharsawan Junction  16:25+1116:26+121m--1-2307.650189mSERWest Singhbhum district, Jharkhand
4CKPChakradharpur (3)  16:50+416:55+55m11-2287.597235mSERChakradharpur (West Singhbhum), Jharkhand
5GOLGoilkeraX  17:16+1317:17+141m--1-2253.757333mSERGoilkera, Jharkhand
6MOUManoharpur  17:46+1117:47+121m--1-2226.268228mSERManoharpur, Jharkhand
7JRAJaraikela17:57+1017:58+111m--1-2214.982215mSERJaraikela Station, Jharkhand
8BNDMBondamunda (3)O  18:14+1118:15+111m--1-2193.020213mSERRourkela, Odisha
9ROURourkela Junction (5)X  18:35+1119:00+3325m11-2186.564198mSERRourkela, Odisha
10GPRaj Gangpur (3)  19:28+3719:29+381m--1-2156.769237mSERRaj Ganpur, Odisha
11BMBBamra (3)X  19:59+3820:00+381m--1-2122.055259mSERBamra PH : 06642-229268, Odisha
12JSGJharsuguda Junction (5)  20:40+2020:50+1910m11-2085.563236mSERJharsuguda, Odisha
13RGLRengali  21:15+4521:17+452m--1-2059.169208mECoRState Highway 10, Odisha
14SBPDSambalpur Road  21:35+4521:37+452m--1-2038.411161mECoRSambalpur, Odisha
15SBPSambalpur Junction (3)X  21:45+4521:55+4710m11-2036.964159mECoRSambalpur, Odisha
16ATSAttabira  22:18+5222:20+552m--1-2012.477164mECoRBargarh, Odisha
17BRGABargarh RoadX  22:34+5722:39+1:035m--1-1994.364185mECoRBargarh, Odisha
18BRPLBarpaliX  22:57+1:0222:59+1:082m--1-1975.167178mECoRBarpali, Odisha
19BLGRBalangir  23:50+1:1523:55+1:235m--1-1918.147210mECoRBolangir, Odisha
20BUDMBadmal  00:50+1:1000:52+1:122m--2-1874.723209mECoRDumerbahal Rd, Odisha
21TIGTitlagarh JunctionX  01:45+4401:55+4610m--2-1854.756212mECoRTitlagarh, Odisha
22KSNGKesinga (1)X  02:10+4802:12+482m12-1840.865183mECoRKesinga, Odisha
23RPRDRupra Road  02:27+5002:29+502m--2-1824.644233mECoRKalahandi, Odisha
24NRLRNorla Road  02:38+4902:40+502m--2-1817.960247mECoRKalahandi, Odisha
25AMBAmbodala  03:05+4903:07+492m--2-1792.939374mECoRState Highway 6, Odisha
26MNGDMunigudaX  03:45+3803:47+392m--2-1767.941335mECoRMuniguda, Odisha
27THVTherubali  04:40+2504:42+262m--2-1732.031270mECoRRayagada, Odisha
28SPRDSingapuram Road (2)X  05:00+2305:02+252m--2-1722.615248mECoRJaykaypur, Odisha
29RGDARayagada (3)  05:40+1105:55+1415m--2-1713.373229mECoRRayagada ph.no 06856-222407, Odisha
30PVPTParvatipuram TownX  06:32+1506:34+162m--2-1668.025121mECoRParvatipuram, Andhra Pradesh
31PVPParvatipuram (3)X  06:38+1506:40+162m--2-1666.472122mECoRParvatipuram, Andhra Pradesh
32VBLBobbili Junction (2)X  07:00+1507:03+153m22-1642.545137mECoRBobbili, Andhra Pradesh
33VZMVizianagaram Junction (5)  08:15+408:20+95m--2-1588.27563mECoRVizianagaram ph.no 08922-225510, Andhra Pradesh
34KTVKottavalasa Junction (5)X  08:48+2108:50+232m--2-1553.34058mECoRVizianagaram District, Andhra Pradesh
35SCMSimhachalam (2)  09:17+309:19+32m--2-1535.21127mECoRVisakhapatnam, Andhra Pradesh
36VSKPVisakhapatnam Junction (8)X10:05+810:25+1020m42-1527.13311mECoRVishakhapatnam 530001, Andhra Pradesh
37DVDDuvvada (4)X  10:55+1010:57+112m--2-1510.77446mECoRVishakhapatnam District, Andhra Pradesh
38AKPAnakapalle (3)  11:10+1911:11+201m--2-1494.87130mSCRAnakapalle ph.no . 08924-221698, Andhra Pradesh
39YLMElamanchili (2)X  11:31+2411:32+281m--2-1471.07123mSCRVisakhapatnam District, Andhra Pradesh
40NRPNarsipatnam Road (2)  11:47+3111:48+311m--2-1453.38418mSCRVisakhapatnam District, Andhra Pradesh
41TUNITuni (2)X  12:04+3912:05+401m12-1431.07124mSCRTuni ph.no. 08854-252172, Andhra Pradesh
42ANVAnnavaram (3)  12:19+4212:20+441m12-1414.37627mSCREast Godavari District, Andhra Pradesh
43GLPGollaproluX  12:35+4812:36+491m--2-1395.24919mSCRGollaprollu, Andhra Pradesh
44PAPPithapuram (2)  12:43+4912:44+521m--2-1389.57222mSCREast Godavari District, Andhra Pradesh
45SLOSamalkot Junction (3)  12:54+5412:55+551m32-1377.58418mSCRKakinada ph.no.0884-2328824, Andhra Pradesh
46APTAnaparti (3)  13:14+5813:15+591m--2-1350.93821mSCREast Godavari District, Andhra Pradesh
47DWPDwarapudi (3)X  13:21+5813:22+581m--2-1347.22420mSCREast Godavari District, Andhra Pradesh
48RJYRajahmundry (3)  14:11+3914:16+405m12-1327.33623mSCRRajahmundry ph.no. 0883-2420541, Andhra Pradesh
49KVRKovvur (3)  14:29+4314:30+441m--2-1319.46125mSCRWest Godavari, Andhra Pradesh
50NDDNidadavolu Junction (3)  14:44+4814:45+491m--2-1305.17120mSCRNidadavolu jtn ph.no. 08813-210325, Andhra Pradesh
51TDDTadepalligudem (3)X  15:02+5015:03+511m--2-1285.18718mSCRTadepalligudem, Andhra Pradesh
52EEEluru (3)  15:36+5915:37+1:001m32-1237.43319mSCREluru Ph.no. 08812 226401., Andhra Pradesh
53BZAVijayawada Junction (10)X  17:25+3717:45+3720m--2-1178.06924mSCRVijayawada 520001, Andhra Pradesh
54TELTenali Junction (5)  18:12+5018:13+521m32-1146.76616mSCRTel: 08644-227834, Andhra Pradesh
55NDONidubrolu (3)  18:33+5718:34+571m--2-1124.7659mSCRNidubrolu, Andhra Pradesh
56BPPBapatla (3)X  18:53+1:0018:54+1:011m--2-1104.17510mSCRBapatla, Andhra Pradesh
57CLXChirala (4)X  19:06+1:0419:07+1:061m--2-1089.1768mSCRChirala, Andhra Pradesh
58CJMChinnaganjam (3)X  19:23+1:0819:24+1:081m--2-1068.8369mSCRChinna Ganjam, Andhra Pradesh
59OGLOngole (3)X  20:12+5220:13+531m32-1039.77712mSCROngole ph.no . 08592-280202, Andhra Pradesh
60SKMSingarayakonda (3)X  20:35+1:0020:36+1:011m32-1011.59126mSCRSingarayakonda, Andhra Pradesh
61KVZKavali (4)X  21:01+1:0421:02+1:051m22-973.77621mSCRKavali, Andhra Pradesh
62BTTRBitragunta (2)X  21:15+5821:16+581m22-957.34515mSCRBitragunta, Andhra Pradesh
63NLRNellore (4)X  22:02+1422:03+131m32-923.01721mSCRNellore, Andhra Pradesh
64GDRGudur Junction (3)  00:18+400:20+52m23-884.56919mSCRGudur, Andhra Pradesh
65NYPNayadupeta (3)  00:44+1300:45+141m23-856.86833mSRNayudupeta, Andhra Pradesh
66SPESullurupeta (3)  01:09+1201:10+131m23-829.6459mSRSullurupeta, Andhra Pradesh
67MASChennai Central (12)03:00+803:25+925m83-747.1579mSRChennai 600003, Tamil Nadu
68TRLTiruvallur (6)  04:09+1104:10+131m--3-705.46550mSRTiruvallur, Tamil Nadu
69AJJArakkonam Junction (8)  04:35+1204:40+115m--3-678.56891mSRArakkonam, Tamil Nadu
70MCNMukundarayapuram (2)  05:19+905:20+121m--3-634.233198mSRSipcot Ranipet, Tamil Nadu
71KPDKatpadi Junction (5)  05:50+405:55+85m13-617.777213mSRVellore 632007. Phone No: 0416-2642628, Tamil Nadu
72GYMGudiyattam (3)  06:14+1106:15+131m33-593.291269mSRVellore, Tamil Nadu
73VNVaniyambadiXO  06:44+1606:45+171m--3-549.328357mSRVaniyambadi, Tamil Nadu
74JTJJolarpettai Junction (5)  07:18+407:20+82m--3-533.844405mSRJolarpettai jtn. Ph No.04179-241221, Tamil Nadu
75TPTTirupattur Junction (2)X  07:30+1207:32+122m--3-526.578392mSRTirupattur ph.no. 04179-220062, Tamil Nadu
76SLYSamalpatti  07:50+1507:52+162m--3-503.290381mSRSamalpatti ph.no. 04341-245601, Tamil Nadu
77BQIBommidiX  08:23+1808:25+182m--3-456.6740mSRBommidi ph.no. 04346-244441, Tamil Nadu
78SASalem Junction (6)X  09:00+2409:05+245m--3-413.653283mSRSalem, Tamil Nadu
79EDErode Junction (4)X  10:15+1510:25+2410m23-351.979175mSRErode ph.no: 0424-2256111, Tamil Nadu
80TUPTiruppur (2)  11:03+2811:05+292m13-302.048305mSRTiruppur. Ph:0421-2200450, Tamil Nadu
81CBECoimbatore Main Junction (6)  12:08+1712:10+182m--3-251.442411mSRCoimbatore 641001, Tamil Nadu
82PGTPalakkad Junction (4)  13:30+1213:35+155m--3-195.64184mSRPalghat Tel: 0491 2555231, Kerala
83SRRShoranur Junction (7)XO14:40+2615:25+2945m53-151.33226mSRShoranur ph.no 0466-2222913, Kerala
84TCRThrissur (4)  16:27+1616:30+173m13-118.4686mSRThrissur Tel: 0487 2423150, Kerala
85AWYAluva (3)XO  17:18+2117:20+212m--3-63.81812mSRPh: 0484-2624141, Kerala
86ERSErnakulam Junction (South) (6)  18:26+818:30+144m13-44.4413mSRErnakulam 682016, Kerala
87TUVRTuravur (2)  19:04+2619:05+271m--3-20.9435mSRThuravoor, Kerala
88SRTLCherthala (3)  19:19+2619:20+271m23-11.01327mSRPh: 0478- 2812500, Kerala
89MAKM»Mararikkulam (1)»X  19:25+2919:45+2720m--30.02312mSRMararikulam, Kerala
90ALLP•Alappuzha (3)•  20:20+9-3313.1-8mSRPh:0477-2253965, Kerala
Scroll to Top
Scroll to Bottom